Home   Weather   Shreveport   Past weeks

Flag for USA Past Weather in Shreveport, Louisiana, USA — Yesterday and Last 2 Weeks

Now
70 °F

Clear.


Feels Like: 75 °F
Forecast: 60 / 77 °F
Wind: 6 mph from West

Location: Shreveport Regional Airport

Current Time: Sep 28, 2016 at 10:30:38 PM

Latest Report: Sep 28, 2016 at 9:56 PM


Visibility: 10 mi

Pressure: 30.00 "Hg

Humidity: 66%

Dew Point: 58 °F

Location of ShreveportLocation

Past Weather in Shreveport — Graph

°F

Shreveport Temperature Yesterday

Maximum temperature yesterday: 79 °F (at 2:56 PM)
Minimum temperature yesterday: 65 °F (at 11:56 PM)
Average temperature yesterday: 72 °F

High & Low Weather Summary for the Past Weeks

 TemperatureHumidityPressure
High96 °F (Sep 19, 3:56 PM)100% (Sep 14, 6:56 AM)30.10 "Hg (Sep 14, 6:56 AM)
Low59 °F (Sep 28, 4:56 AM)32% (Sep 28, 3:56 PM)29.87 "Hg (Sep 16, 5:56 PM)
Average80 °F74%30.00 "Hg
* Reported Sep 13 8:56 PM — Sep 28 8:56 PM, Shreveport, Weather by CustomWeather, © 2016

Note: Actual official high and low records may vary slightly from our data, if they occured in-between our weather recording intervals... More about our weather records

Advertising

Shreveport Weather History for the Previous 24 Hours

Scroll right to see more
 ConditionsComfort  
Time TempWeatherWind HumidityBarometerVisibility
8:56 PM
Wed, Sep 28
71 °FPassing clouds.6 mph63%29.99 "Hg10 mi
7:56 PM75 °FPassing clouds.5 mph55%29.98 "Hg10 mi
6:56 PM81 °FPassing clouds.6 mph44%29.98 "Hg10 mi
5:56 PM86 °FPassing clouds.7 mph35%29.97 "Hg10 mi
4:56 PM87 °FPassing clouds.8 mph32%29.97 "Hg10 mi
3:56 PM87 °FPassing clouds.3 mph32%29.97 "Hg10 mi
2:56 PM86 °FPassing clouds.6 mph35%29.98 "Hg10 mi
1:56 PM84 °FPassing clouds.7 mph38%30.00 "Hg10 mi
12:56 PM83 °FScattered clouds.7 mph38%30.02 "Hg7 mi
11:56 AM81 °FScattered clouds.9 mph38%30.03 "Hg7 mi
10:56 AM78 °FScattered clouds.6 mph40%30.04 "Hg10 mi
9:56 AM74 °FScattered clouds.5 mph46%30.04 "Hg10 mi
8:56 AM69 °FScattered clouds.3 mph68%30.02 "Hg10 mi
7:56 AM63 °FScattered clouds.5 mph87%30.01 "Hg10 mi
6:56 AM60 °FPassing clouds.No wind90%29.99 "Hg10 mi
5:56 AM59 °FClear.No wind96%29.99 "Hg10 mi
4:56 AM59 °FPassing clouds.No wind96%29.99 "Hg10 mi
3:56 AM61 °FPassing clouds.No wind93%29.98 "Hg10 mi
2:56 AM61 °FPassing clouds.No wind97%29.98 "Hg10 mi
1:56 AM64 °FPassing clouds.No wind90%29.98 "Hg10 mi
12:56 AM64 °FPassing clouds.3 mph90%30.00 "Hg10 mi
11:56 PM
Tue, Sep 27
65 °FPassing clouds.No wind91%30.00 "Hg10 mi
10:56 PM66 °FPassing clouds.No wind87%29.99 "Hg10 mi
Weather by CustomWeather, © 2016

See weather overviewHow to use our weather pages